Regional Weather Roundup
Issued by NWS Newport/Morehead, NC

Current Version | Previous Version | Graphics & Text | Print | Product List | Glossary Off
Versions: 1 2 3 4 5 6 7 8 9 10 11 12 13 14 15 16 17 18 19 20 21 22 23 24 25 26 27 28 29 30 31 32 33 34 35 36 37 38 39 40 41 42 43 44 45 46 47 48 49 50

000
ASUS42 KMHX 112225
RWRMHX
WEATHER ROUNDUP FOR EASTERN NORTH CAROLINA
NATIONAL WEATHER SERVICE NEWPORT/MOREHEAD CITY NC
500 PM EST MON DEC 11 2017

NOTE: "FAIR" INDICATES FEW OR NO CLOUDS BELOW 12,000 FEET
WITH NO SIGNIFICANT WEATHER AND/OR OBSTRUCTIONS TO VISIBILITY

NCZ015>017-031-032-045>047-102-103-112300-
NORTH COAST

CITY           SKY/WX    TMP DP  RH WIND       PRES   REMARKS
EDENTON        CLEAR     45  38  78 CALM      30.04F
ELIZABETH CITY CLEAR     44  37  76 SE6       30.04F
KITTY HAWK     CLEAR     41  33  71 CALM      30.04S
MANTEO         CLEAR     41  33  73 CALM      30.05F

$$

NCZ045>047-081-094-103-104-112300-
CENTRAL COAST

CITY           SKY/WX    TMP DP  RH WIND       PRES   REMARKS
FRISCO         CLEAR     41  36  82 CALM      30.06F

$$

NCZ095-097-098-100-101-112300-
SOUTHERN COAST

CITY           SKY/WX    TMP DP  RH WIND       PRES   REMARKS
BEAUFORT       CLEAR     48  33  56 S3        30.05S
CEDAR ISLAND   NOT AVBL
JACKSONVILLE   CLEAR     48  33  56 S3        30.03F
PINEY ISLAND     N/A    N/A N/A N/A E6        30.05S
WILMINGTON     CLEAR     49  26  41 SE5       30.04F


$$

NCZ011>013-027>030-043-044-078>080-089-090>093-098-112300-
COASTAL PLAIN

CITY           SKY/WX    TMP DP  RH WIND       PRES   REMARKS
AHOSKIE        CLEAR     43  33  67 CALM      30.02F
CLINTON        CLEAR     47  32  56 CALM      30.03F
ELIZABETHTOWN  NOT AVBL
GOLDSBORO      CLEAR     49  30  47 CALM      30.01F
GREENVILLE     CLEAR     46  32  57 S3        30.04F
HAVELOCK       CLEAR     48  32  53 S6        30.05F
KENANSVILLE    CLEAR     45  34  65 CALM      30.04S
KINSTON        CLEAR     46  34  61 CALM      30.04F
NEW BERN       CLEAR     45  37  73 CALM      30.05F
RICHLANDS      CLEAR     45  35  68 CALM      30.04F
ROCKY MOUNT    CLEAR     46  34  62 S5        30.01F
WASHINGTON     CLEAR     46  33  59 CALM      30.04F
WHITEVILLE     CLEAR     48  33  56 CALM      30.03S

$$

AMZ130-135-150-152-154-156-158-170-250-252-270-ANZ085-086-088-633-658-670-112300-
MARINE OBSERVATIONS

STATION/POSITION TIME  TEMP    WIND        PRES    WAVE   SWELL
                       AIR SEA DIR/SP/G            HT/PER HT/PER
                 (UTC) (F)     (DEG/KT/KT) (MB)    (FT/S) (FT/S)
CHESAPEAKE LIGHT NOT AVBL
64 E VA BEACH    2150   48 60  260/  2/  4 1017.8    3/ 9   2/ 9
DUCK             2200   46 55  130/  4/  6 1016.9
2 E DUCK         2200      54                N/A     1/ 9
OREGON INLET     2200   44 46  120/  3/  4 1017.5
13E OREGON INLT  2148      57                N/A     2/ 9   2/ 9
HATTERAS CG      2200   47 51  220/  1/  2 1017.5
DIAMOND BUOY     2210   52 75  290/  4/ 10 1017.9
CAPE LOOKOUT     2200          190/  3/  4 1017.8
BEAUFORT LAB     2200   49 52  170/  4/  4 1017.4
30 SE NEW RVR IN 2208   52 68  210/  2/  4 1017.5
30 SE NEW RVR IN 2200      68                N/A     3/ 8
27 SE WRIGHTSVLE 2208   51 66  250/  2/  6 1017.5
5 SE WRIGHTSVLE  2108   52 58  160/  2/  4 1017.7
225 S CAPE HAT   2150   66 76  280/ 10/ 16 1018.0    4/ 9   3/ 9
41 SE CHARLESTON 2210      74  270/ 12/ 16 1017.8

$$




USA.gov is the U.S. government's official web portal to all federal, state and local government web resources and services.